FORMOSAT-3 FM4 (29051 NORAD) Tracking and Keplerian Element Data

This shows tracking and keplerian element data for the satellite.

Feedback or suggestion? Click here.




ElementValue
Catalog29051
NameFORMOSAT-3 FM4
Epoch Orbit65984
Epoch Day322.92909365
Epoch Year2018
RAAN189.7072
Inclination72.005
Eccentricity0.0069125
Argument of Perigee203.2539
Mean Anonmoly156.5467
Mean Motion14.2870676
Decay Rate4.1E-07
L11 29051U 06011E 18322.92909365 .00000041 00000-0 32047-4 0 9999
L22 29051 72.0050 189.7072 0069125 203.2539 156.5467 14.28706760659841

Live tracking and technical data element details for FORMOSAT-3 FM4 (NORAD 29051). FORMOSAT-3 FM4 can be tracked NOW for your location showing map with azimuth and elevation plus other details from your city location.

Track the satellite on the map from your city or location and see movement details for azimuth, elevation, latitude, longitude, range, height, and movement on the map or in text.







IsCatalogInMostPopularTable: catalog: 29051, numindb: 47
Update: records affected: 1



GetName: 29051 FORMOSAT-3 FM4

Hit Count: updated at: Wed, 21 Nov 2018 05:26:14 GMT